User: anonymous   Login
Location: Unspecified
(0.0000°N, 0.0000°E)
Time: 13:45:21
(UTC+00:00)
Language:

SS-520-5 R/B - Orbit

View from above orbital plane
View from above orbital plane
View from above satellite
View from above satellite

Ground track
Ground track

The orbit data is extracted from the following two-line orbital elements,

1 43202U 18016B   18173.32315573  .11444433 -40539-5  58886-3 0  9995
2 43202  30.8550 158.7749 0067844 281.4297  78.4669 16.31889012 20109
Epoch (UTC): 22 June 2018 07:45:20
Eccentricity: 0.0067844
inclination: 30.8550°
perigee height: 143 km
apogee height: 232 km
right ascension of ascending node: 158.7749°
argument of perigee: 281.4297°
revolutions per day: 16.31889012
mean anomaly at epoch: 78.4669°
orbit number at epoch: 2010

The dashed part of the orbit path shows where the satellite is in the earth's shadow,  

DLR